Weather History for Youngstown, OH

Change the Weather History Date:

Monday, November 28, 2011

  Actual Average Record
Temperature  
Mean Temperature 48 °F 37 °F  
Max Temperature 54 °F 43 °F 69 °F (1990)
Min Temperature 42 °F 30 °F 7 °F (1950)
Degree Days  
Heating Degree Days 17 28  
Month to date heating degree days 506 650  
Since 1 July heating degree days 1058 1271  
Cooling Degree Days 0 0  
Month to date cooling degree days 0 0  
Year to date cooling degree days 731 544  
Moisture  
Dew Point 44 °F    
Average Humidity 96    
Maximum Humidity 100    
Minimum Humidity 92    
Precipitation  
Precipitation 0.43 in 0.11 in 1.04 in (1968)
Month to date precipitation 3.60 2.97  
Year to date precipitation 49.03 35.71  
Snow  
Snow 0.00 in 0.20 in - ()
Month to date snowfall 1.7 3.1  
Since 1 July snowfall 1.7 3.9  
Since 1 September snowfall 1.7 3.9  
Snow Depth 0.00 in    
Sea Level Pressure  
Sea Level Pressure 29.97 in    
Wind  
Wind Speed 6 mph (NNE)    
Max Wind Speed 15 mph    
Max Gust Speed 18 mph    
Visibility 4 miles    
Events Fog , Rain    
T = Trace of Precipitation, MM = Missing Value Source: NWS Daily Summary

Daily Weather History Graph

Daily Weather History Graph

Search for Another Location

Airport:

Trip Planner

Search our weather history database for the weather conditions in past years. The results will help you decide how hot, cold, wet, or windy it might be!

Date:

Astronomy

Nov. 28, 2011 Rise Set
Actual Time 7:25 AM EST 4:55 PM EST
Civil Twilight 6:54 AM EST 5:25 PM EST
Nautical Twilight 6:20 AM EST 6:00 PM EST
Astronomical Twilight 5:47 AM EST 6:33 PM EST
Moon 10:33 AM EST (11/28) 8:41 PM EST (11/28)
Length of Visible Light 10h 31m
Length of Day
9h 30m
Waxing Crescent, 15% of the Moon is Illuminated
Nov 28
Waxing Crescent
Dec 2
First Quarter
Dec 10
Full
Dec 17
Last Quarter
Dec 24
New

Hourly Weather History & Observations

Time (EST) Temp. Windchill Dew Point Humidity Pressure Visibility Wind Dir Wind Speed Gust Speed Precip Events Conditions
12:24 AM 48.2 °F - 48.2 °F 100% 29.95 in 4.0 mi NNW 12.7 mph - 0.04 in Rain Light Rain
12:51 AM 46.9 °F - 45.0 °F 93% 29.98 in 4.0 mi NNW 11.5 mph - 0.05 in Rain Light Rain
1:31 AM 44.6 °F 39.2 °F 44.6 °F 100% 29.98 in 2.0 mi North 10.4 mph - 0.03 in Rain Light Rain
1:51 AM 45.0 °F 41.2 °F 43.0 °F 93% 29.98 in 2.0 mi North 6.9 mph - 0.06 in Rain Rain
2:20 AM 44.6 °F 40.7 °F 42.8 °F 93% 29.97 in 3.0 mi North 6.9 mph - 0.02 in Rain Light Rain
2:51 AM 45.0 °F 40.6 °F 43.0 °F 93% 29.99 in 3.0 mi North 8.1 mph - 0.03 in Rain Light Rain
3:51 AM 44.1 °F 39.5 °F 42.1 °F 93% 30.00 in 4.0 mi North 8.1 mph - 0.02 in Rain Light Rain
4:14 AM 44.6 °F 39.7 °F 42.8 °F 93% 30.00 in 5.0 mi North 9.2 mph - 0.01 in Rain Light Rain
4:51 AM 43.0 °F 38.8 °F 42.1 °F 97% 30.01 in 4.0 mi North 6.9 mph - 0.02 in Rain Light Rain
5:51 AM 43.0 °F 37.7 °F 41.0 °F 93% 30.03 in 8.0 mi NNE 9.2 mph - 0.01 in Rain Light Rain
6:51 AM 43.0 °F 38.8 °F 41.0 °F 93% 30.05 in 8.0 mi North 6.9 mph - 0.01 in Rain Light Rain
7:51 AM 43.0 °F 38.2 °F 41.0 °F 93% 30.08 in 6.0 mi North 8.1 mph - 0.03 in Rain Light Rain
8:51 AM 42.1 °F 36.6 °F 41.0 °F 96% 30.08 in 6.0 mi NNE 9.2 mph - 0.06 in Rain Light Rain
9:42 AM 42.8 °F 37.5 °F 41.0 °F 93% 30.04 in 6.0 mi NE 9.2 mph - 0.04 in Rain Light Rain
9:51 AM 43.0 °F 37.7 °F 41.0 °F 93% 30.05 in 6.0 mi NNE 9.2 mph - 0.05 in Rain Light Rain
10:51 AM 44.6 °F 41.4 °F 42.8 °F 93% 30.02 in 6.0 mi NE 5.8 mph - N/A Rain Light Rain
11:51 AM 46.0 °F 43.1 °F 44.1 °F 93% 30.01 in 10.0 mi NE 5.8 mph - 0.03 in Rain Light Rain
12:51 PM 46.9 °F - 45.0 °F 93% 30.00 in 10.0 mi North 6.9 mph - 0.00 in   Overcast
1:51 PM 46.0 °F 42.5 °F 44.1 °F 93% 29.99 in 4.0 mi NNE 6.9 mph - N/A   Overcast
2:03 PM 46.4 °F 42.4 °F 44.6 °F 93% 29.97 in 2.5 mi NNE 8.1 mph - N/A   Overcast
2:17 PM 44.6 °F 40.2 °F 44.6 °F 100% 29.96 in 0.8 mi NE 8.1 mph - N/A   Overcast
2:22 PM 44.6 °F 41.4 °F 44.6 °F 100% 29.96 in 0.5 mi NE 5.8 mph - N/A Fog Fog
2:51 PM 46.0 °F 42.5 °F 44.1 °F 93% 29.98 in 0.5 mi NNE 6.9 mph - 0.00 in Fog , Rain Light Rain
3:51 PM 46.0 °F 43.1 °F 45.0 °F 96% 29.96 in 0.8 mi NNE 5.8 mph - 0.03 in Rain Light Rain
4:17 PM 46.4 °F 44.3 °F 44.6 °F 93% 29.95 in 2.0 mi North 4.6 mph - 0.01 in Rain Light Rain
4:51 PM 46.9 °F - 45.0 °F 93% 29.97 in 2.0 mi North 3.5 mph - 0.01 in   Overcast
5:51 PM 46.9 °F - 45.0 °F 93% 29.98 in 2.0 mi North 4.6 mph - N/A   Overcast
6:51 PM 46.9 °F - 45.0 °F 93% 29.94 in 2.0 mi NE 5.8 mph - 0.00 in Rain Light Rain
7:31 PM 46.4 °F 45.2 °F 44.6 °F 93% 29.91 in 1.0 mi ENE 3.5 mph - 0.00 in   Mist
7:51 PM 46.9 °F - 45.0 °F 93% 29.92 in 1.0 mi NE 4.6 mph - 0.00 in   Mist
8:36 PM 46.4 °F 44.3 °F 46.4 °F 100% 29.90 in 2.0 mi East 4.6 mph - N/A   Overcast
8:51 PM 48.0 °F - 46.9 °F 96% 29.91 in 3.0 mi East 5.8 mph - 0.00 in Rain Light Rain
9:51 PM 48.0 °F - 46.9 °F 96% 29.91 in 3.0 mi Calm Calm - 0.01 in Rain Light Rain
10:51 PM 48.0 °F - 46.0 °F 93% 29.88 in 4.0 mi NE 3.5 mph - 0.00 in   Overcast
11:05 PM 48.2 °F - 46.4 °F 93% 29.86 in 0.8 mi Calm Calm - N/A   Overcast
11:34 PM 48.2 °F - 48.2 °F 100% 29.86 in 4.0 mi ENE 3.5 mph - 0.00 in Rain Light Rain
11:51 PM 48.9 °F - 48.0 °F 97% 29.87 in 6.0 mi ENE 3.5 mph - 0.00 in Rain Light Rain